Regional Weather Roundup
Issued by NWS Newport/Morehead, NC

Current Version | Previous Version | Text Only | Print | Product List | Glossary On
Versions: 1 2 3 4 5 6 7 8 9 10 11 12 13 14 15 16 17 18 19 20 21 22 23 24 25 26 27 28 29 30 31 32 33 34 35 36 37 38 39 40 41 42 43 44 45 46 47 48 49 50
055
ASUS42 KMHX 270225
RWRMHX
WEATHER ROUNDUP FOR EASTERN NORTH CAROLINA
NATIONAL WEATHER SERVICE NEWPORT/MOREHEAD CITY NC
1000 PM EDT TUE JUL 26 2016

NOTE: "FAIR" INDICATES FEW OR NO CLOUDS BELOW 12,000 FEET
WITH NO SIGNIFICANT WEATHER AND/OR OBSTRUCTIONS TO VISIBILITY

NCZ015>017-031-032-045>047-102-103-270300-
NORTH COAST

CITY           SKY/WX    TMP DP  RH WIND       PRES   REMARKS
EDENTON        CLOUDY    81  81 100 N7        29.95R
ELIZABETH CITY CLOUDY    78  74  87 CALM      29.94R
KITTY HAWK     CLOUDY    80  77  91 CALM      29.94R FOG
MANTEO           N/A     77  77 100 CALM      29.96R

$$

NCZ045>047-081-094-103-104-270300-
CENTRAL COAST

CITY           SKY/WX    TMP DP  RH WIND       PRES   REMARKS
FRISCO         CLOUDY    83  76  79 SW10G20   29.95F

$$

NCZ095-097-098-100-101-270300-
SOUTHERN COAST

CITY           SKY/WX    TMP DP  RH WIND       PRES   REMARKS
BEAUFORT       CLEAR     83  78  85 SW16      29.97F
CEDAR ISLAND   NOT AVBL
JACKSONVILLE   CLEAR     81  74  79 SW6       29.98R
PINEY ISLAND   NOT AVBL
WILMINGTON     CLEAR     82  76  81 S9        29.99R


$$

NCZ011>013-027>030-043-044-078>080-089-090>093-098-270300-
COASTAL PLAIN

CITY           SKY/WX    TMP DP  RH WIND       PRES   REMARKS
AHOSKIE        CLOUDY    76  75  98 CALM      29.95S
CLINTON        CLEAR     84  77  80 S6        29.98R
ELIZABETHTOWN  CLEAR     83  74  75 S3        29.99R
GOLDSBORO      CLEAR     86  76  71 S5        29.95R
GREENVILLE     CLOUDY    86  77  74 SW8       29.98R
HAVELOCK       CLEAR     82  74  76 SW10      29.98R
KENANSVILLE    NOT AVBL
KINSTON        CLEAR     84  75  74 S7        29.97R
NEW BERN       CLEAR     81  75  82 S7        29.98R
RICHLANDS      CLEAR     82  74  76 SW9       29.99R
ROCKY MOUNT    CLOUDY    81  79  94 SW3       29.96R
WASHINGTON     PTCLDY    84  77  79 S6        29.96R
WHITEVILLE     CLEAR     82  75  80 S3        30.00R

$$

AMZ130-135-150-152-154-156-158-170-250-252-270-ANZ085-086-088-633-658-670-270300-
MARINE OBSERVATIONS

STATION/POSITION TIME  TEMP    WIND        PRES    WAVE   SWELL
                       AIR SEA DIR/SP/G            HT/PER HT/PER
                 (UTC) (F)     (DEG/KT/KT) (MB)    (FT/S) (FT/S)
CHESAPEAKE LIGHT NOT AVBL
64 E VA BEACH    0150   82 81   10/  2/  4 1013.8    3/ 6   3/ 6
DUCK             0100   77 67                N/A
2 E DUCK         0111      72                N/A     1/ 6
OREGON INLET     0100   82 86                N/A
13E OREGON INLT  0200      82                N/A     3/ 6   2/ 6
HATTERAS CG      0100   83 83                N/A
DIAMOND BUOY     0150   85 84  230/ 17/ 21 1014.3    4/ 5
CAPE LOOKOUT     0200   83     220/ 12/ 16 1014.8
BEAUFORT LAB     0100   83 84                N/A
30 SE NEW RVR IN 0208   84 85  230/ 16/ 21 1015.5
30 SE NEW RVR IN 0125      85                N/A     4/ 5
27 SE WRIGHTSVLE 0208   84 84  230/ 14/ 17 1016.0
5 SE WRIGHTSVLE  0208   81 80  230/ 10/ 14 1016.6
225 S CAPE HAT   0150   84 84  230/ 10/ 10 1017.9    2/ 7   2/ 7
41 SE CHARLESTON 0150   85 86  210/ 16/ 17 1015.9    3/ 4   2/ 8

$$




USA.gov is the U.S. government's official web portal to all federal, state and local government web resources and services.